DELTA 1 DEB, 7153

Orbit data source: Space-Track

DELTA 1 DEB, 7153 is space debris in SSO originally from a launch on Tue, 06 Nov 1973 UTC launched from the Air Force Western Test Range (AFWTR). Debris objects in space refer to the collection of defunct objects orbiting the Earth. Examples of debris include non-operational satellites, rocket bodies, and fragments generated from explosions, collisions, or faulty payload assembly.

Loading next visibility...
Identifier
7153, 1973-086DT
Orbit
SSO
Country
Flag of USUS
Related business
Manufacturer
Unknown
Mission
Spacecraft
Bus & Motor
Unknown
Mass
Unknown
Launch date (UTC)
1973-11-06 (52 years ago)
Launch vehicle
Unknown
Launch site
Air Force Western Test Range (AFWTR)
Object type
Payload
Rocket body
Debris
Shape & HBR
Unknown shape, 0.3 m
Radar Cross Section
Medium (>0.1 m² and <1 m²)

Expand to show TLE details & history
Last TLE update: 7 hours ago

TLE from 7 hours ago
0 DELTA 1 DEB
1  7153U 73086DT  26124.46788911  .00000042  00000-0  68340-3 0  9999
2  7153 102.1538  91.4222 0032964 221.4513 256.5865 12.36015611365333
Epoch: 2026-05-04T11:13Z
TLE epoch observation values (Epoch: 2026-05-04T11:13:45.619Z)
Latitude
60.06272°
Longitude
-97.52657°
Altitude
1,539.674 km
Speed
7.099 km/s
True Right ascension
19h 33m 04s
True Declination
59° 55' 43"
Sunlit
Object was in daylight at epoch
Visualization orbit readout
Latitude
Unknown
Longitude
Unknown
Altitude
Unknown
Speed
Unknown
Apparent Right ascension
Unknown
Apparent Declination
Unknown
Sunlit
N/A
Visualization observer readout
Local Sidereal Time
01:34:44
Azimuth
Unknown
Elevation
Unknown
Doppler factor
Unknown
Orbital elements
Apogee altitude
1,547.167 km
Perigee altitude
1,495.089 km
Semi-major axis
7,899.265 km
Eccentricity
0.0033
Inclination
102.1538°
RAAN
91.4222°
Arg. of periapsis
221.4513°
True anomaly
256.21942°
Mean anomaly
256.5865°
Eccentric anomaly
256.40292°
Mean motion
3.09146 °/min
Orbital period
116.45 mins
BSTAR
0.0006834
Loading maneuver chart data...
Computing Atmospheric mass density...
Loading historical data...
Loading historical data...
Loading historical data...
Loading historical data...
Loading historical data...
Loading historical data...
Loading historical data...

Documentation

Showing up to 5 results
|